User: anonymous   Login
Location: Taipo
(41.0000°S, 175.9500°E)
Time: 05:47:38
(UTC+00:00)
Language:

Spot 4 Rocket - Orbit

View from above orbital plane
View from above orbital plane
View from above satellite
View from above satellite

Ground track
Ground track

The orbit data is extracted from the following two-line orbital elements,

1 25261U 98017B   24173.96270391  .00000546  00000-0  20732-3 0  9997
2 25261  98.8472 175.5776 0004692  99.5675 260.6040 14.35148792371919
Epoch (UTC): 21 June 2024 23:06:17
Eccentricity: 0.0004692
inclination: 98.8472°
perigee height: 771 km
apogee height: 778 km
right ascension of ascending node: 175.5776°
argument of perigee: 99.5675°
revolutions per day: 14.35148792
mean anomaly at epoch: 260.6040°
orbit number at epoch: 37191

The dashed part of the orbit path shows where the satellite is in the earth's shadow,  

DLR